This demonstration page uses our WeatherBlox Daily Observations layout. Learn more.

Left ArrowRight Arrow

39.51506, -84.39828

Hourly Observations for April 9, 2018

Temp ( °F °C ) Dew Point ( °F °C ) Humidity (%) Winds ( mph kmh ) Pressure ( in mb ) Visibility ( mi km ) Precip ( " mm )
12:15 am 00:15 Cloudy 38 3.6 20 -6.8 47 47 ENE 7 11 30.06 1018 10 16 0.00 0.00
12:35 am 00:35 Cloudy 38 3.5 20 -6.4 49 49 ENE 8 13 30.09 1019 10 16 0.00 0.00
12:55 am 00:55 Cloudy 38 3.5 20 -6.5 48 48 E 5 7 30.09 1019 10 16 0.00 0.00
1:15 am 01:15 Cloudy 38 3.5 20 -6.4 49 49 SE 5 7 30.09 1019 10 16 0.00 0.00
1:35 am 01:35 Cloudy 38 3.1 21 -6.3 50 50 Calm 30.09 1019 10 16 0.00 0.00
1:55 am 01:55 Cloudy 37 2.9 22 -5.4 55 55 ENE 7 11 30.12 1020 10 16 0.00 0.00
2:15 am 02:15 Cloudy with Light Rain 36 2.3 24 -4.2 63 63 NE 6 9 30.15 1021 7 11 0.00 0.00
2:35 am 02:35 Cloudy with Light Snow 33 0.7 29 -1.6 85 85 N 12 19 30.15 1021 4 6 0.00 0.00
2:55 am 02:55 Cloudy with Light Snow 32 0.1 30 -0.9 93 93 N 7 11 30.15 1021 3 4 0.00 0.00
3:15 am 03:15 Cloudy with Light Snow 32 0.1 31 -0.7 94 94 NNE 6 9 30.15 1021 3 5 0.00 0.00
3:35 am 03:35 Cloudy with Light Snow 32 0 30 -1.1 92 92 NNE 7 11 30.15 1021 2 3 0.00 0.00
3:55 am 03:55 Cloudy with Light Snow 32 -0.1 31 -0.8 95 95 NE 6 9 30.12 1020 2 2 0.00 0.00
4:15 am 04:15 Cloudy with Light Snow 32 -0.1 31 -0.6 96 96 ENE 7 11 30.12 1020 2 3 0.00 0.00
4:35 am 04:35 Cloudy with Light Snow 32 0 31 -0.6 96 96 ENE 6 9 30.12 1020 3 5 0.00 0.00
4:55 am 04:55 Cloudy with Light Snow 32 0 31 -0.7 95 95 NE 8 13 30.12 1020 3 4 0.00 0.00
5:15 am 05:15 Cloudy with Light Snow 32 0 31 -0.8 94 94 NE 6 9 30.12 1020 4 6 0.00 0.00
5:35 am 05:35 Cloudy with Light Snow 32 0.1 31 -0.6 95 95 ENE 5 7 30.09 1019 3 4 0.00 0.00
5:55 am 05:55 Cloudy with Light Snow 32 0 31 -0.7 95 95 ENE 8 13 30.09 1019 3 4 0.00 0.00
6:15 am 06:15 Cloudy with Light Snow 32 0.1 31 -0.7 94 94 ENE 7 11 30.09 1019 5 8 0.00 0.00
6:35 am 06:35 Cloudy with Light Snow 32 0.2 31 -0.7 94 94 ENE 6 9 30.09 1019 7 11 0.00 0.00
6:55 am 06:55 Cloudy with Light Snow 33 0.3 31 -0.8 92 92 ENE 6 9 30.09 1019 10 16 0.00 0.00
7:15 am 07:15 Cloudy with Light Snow 32 0.2 30 -1.1 91 91 ENE 6 9 30.09 1019 10 16 0.00 0.00
7:35 am 07:35 Cloudy 32 0.2 29 -1.4 89 89 ENE 7 11 30.12 1020 10 16 0.00 0.00
7:55 am 07:55 Cloudy 32 0.2 29 -1.4 89 89 ENE 5 7 30.12 1020 10 16 0.00 0.00
8:15 am 08:15 Cloudy 33 0.3 30 -1.3 89 89 E 6 9 30.12 1020 10 16 0.00 0.00
8:35 am 08:35 Cloudy 33 0.4 29 -1.7 86 86 E 6 9 30.12 1020 10 16 0.00 0.00
8:55 am 08:55 Cloudy 33 0.4 29 -1.5 87 87 E 8 13 30.12 1020 10 16 0.00 0.00
9:15 am 09:15 Cloudy 33 0.5 29 -1.6 86 86 ENE 5 7 30.15 1021 10 16 0.00 0.00
9:35 am 09:35 Cloudy 33 0.7 29 -1.5 85 85 ENE 5 7 30.15 1021 10 16 0.00 0.00
9:55 am 09:55 Cloudy 33 0.7 29 -1.6 85 85 ENE 5 7 30.15 1021 10 16 0.00 0.00
10:15 am 10:15 Cloudy 34 1 29 -1.4 84 84 NE 3 6 30.15 1021 10 16 0.00 0.00
10:35 am 10:35 Cloudy with Light Snow 34 1 30 -1.3 85 85 NE 5 7 30.15 1021 10 16 0.00 0.00
10:55 am 10:55 Cloudy with Light Snow 34 1 29 -1.6 83 83 Calm 30.18 1022 10 16 0.00 0.00
11:15 am 11:15 Cloudy with Light Wintry Mix 34 1.2 29 -1.4 83 83 Calm 30.18 1022 10 16 0.00 0.00
11:35 am 11:35 Cloudy with Light Wintry Mix 35 1.4 30 -1.3 82 82 NNE 3 6 30.18 1022 10 16 0.00 0.00
11:55 am 11:55 Cloudy with Light Wintry Mix 35 1.4 30 -1 84 84 N 5 7 30.18 1022 10 16 0.00 0.00
12:15 pm 12:15 Cloudy with Light Wintry Mix 35 1.6 31 -0.8 84 84 NNE 3 6 30.18 1022 10 16 0.00 0.00
12:35 pm 12:35 Cloudy 35 1.9 31 -0.7 83 83 Calm 30.18 1022 10 16 0.00 0.00
12:50 pm 12:50 Cloudy 36 2.1 31 -0.7 82 82 Calm 30.18 1022 10 16 0.00 0.00
1:15 pm 13:15 Cloudy 36 2.3 31 -0.5 82 82 Calm 30.15 1021 10 16 0.00 0.00
1:35 pm 13:35 Cloudy 36 2 30 -1 81 81 WNW 3 6 30.18 1022 10 16 0.00 0.00
1:55 pm 13:55 Cloudy 37 3 30 -1 75 75 Calm 30.18 1022 10 16 0.00 0.00
2:15 pm 14:15 Cloudy 37 2.8 31 -0.3 80 80 NW 5 7 30.18 1022 10 16 0.00 0.00
2:35 pm 14:35 Cloudy 37 3 32 -0.2 80 80 NW 5 7 30.18 1022 10 16 0.00 0.00
2:55 pm 14:55 Cloudy 38 3.3 32 0 79 79 W 8 13 30.18 1022 10 16 0.00 0.00
3:15 pm 15:15 Cloudy 38 3.6 32 0.2 79 79 WNW 5 7 30.18 1022 10 16 0.00 0.00
3:35 pm 15:35 Cloudy 38 3.6 32 -0.1 77 77 W 5 7 30.18 1022 10 16 0.00 0.00
3:55 pm 15:55 Cloudy 39 3.8 31 -0.8 72 72 W 6 9 30.18 1022 10 16 0.00 0.00
4:15 pm 16:15 Cloudy 39 4 31 -0.8 71 71 NNW 7 11 30.18 1022 10 16 0.00 0.00
4:35 pm 16:35 Cloudy 39 3.9 31 -0.7 72 72 NNE 5 7 30.18 1022 10 16 0.00 0.00
4:55 pm 16:55 Cloudy 39 3.9 31 -0.5 73 73 N 5 7 30.18 1022 10 16 0.00 0.00
5:15 pm 17:15 Cloudy 39 3.9 31 -0.8 72 72 WNW 6 9 30.18 1022 10 16 0.00 0.00
5:35 pm 17:35 Cloudy 39 4 30 -1.1 70 70 Calm 30.21 1023 10 16 0.00 0.00
5:55 pm 17:55 Cloudy 39 4.1 30 -1.3 68 68 NW 5 7 30.21 1023 10 16 0.00 0.00
6:15 pm 18:15 Cloudy 40 4.3 29 -1.5 66 66 N 7 11 30.21 1023 10 16 0.00 0.00
6:35 pm 18:35 Cloudy 39 4.1 29 -1.8 66 66 N 5 7 30.21 1023 10 16 0.00 0.00
6:55 pm 18:55 Cloudy 40 4.2 29 -1.4 67 67 Calm 30.21 1023 10 16 0.00 0.00
7:15 pm 19:15 Cloudy 39 4.1 29 -1.6 67 67 N 6 9 30.21 1023 10 16 0.00 0.00
7:35 pm 19:35 Cloudy 39 3.9 29 -1.5 68 68 N 5 7 30.21 1023 10 16 0.00 0.00
7:55 pm 19:55 Cloudy 39 3.7 29 -1.4 70 70 Calm 30.21 1023 10 16 0.00 0.00
8:15 pm 20:15 Cloudy 39 3.8 29 -1.8 67 67 Calm 30.21 1023 10 16 0.00 0.00
8:35 pm 20:35 Cloudy 38 3.5 30 -1.3 71 71 Calm 30.21 1023 10 16 0.00 0.00
8:55 pm 20:55 Cloudy 38 3.4 30 -0.9 74 74 Calm 30.24 1024 10 16 0.00 0.00
9:15 pm 21:15 Cloudy 38 3.1 31 -0.5 77 77 Calm 30.24 1024 10 16 0.00 0.00
9:35 pm 21:35 Cloudy 37 2.7 32 0.1 83 83 Calm 30.24 1024 10 16 0.00 0.00
9:55 pm 21:55 Cloudy 37 2.7 32 -0.1 82 82 Calm 30.27 1025 10 16 0.00 0.00
10:15 pm 22:15 Cloudy 37 2.5 32 0.2 85 85 Calm 30.27 1025 10 16 0.00 0.00
10:35 pm 22:35 Cloudy 37 2.9 31 -0.5 79 79 Calm 30.27 1025 10 16 0.00 0.00
10:55 pm 22:55 Cloudy 38 3.2 31 -0.3 78 78 Calm 30.27 1025 10 16 0.00 0.00
11:15 pm 23:15 Cloudy 37 3 32 -0.2 80 80 Calm 30.27 1025 10 16 0.00 0.00
11:35 pm 23:35 Cloudy 37 2.8 33 0.6 86 86 Calm 30.27 1025 10 16 0.00 0.00
11:55 pm 23:55 Cloudy 37 2.5 33 0.4 86 86 Calm 30.27 1025 10 16 0.00 0.00

Powered by AerisWeather